Terug naar catalogus

DELTA 1 DEB

ActiefPO
NORAD 21268·DEBRIS·🇺🇸 United States

Gelanceerd Jun 12, 1975 vanaf Vandenberg Space Force Base

Loading…

Volgende Passages (komende 24 uur)

TLE

VersSource: Space-Track

Epoch: Sep 14, 2026, 08:38 UTC

1 21268U 75052D   26257.36033244 -.00000193  00000-0 -42597-3 0  9990
2 21268  99.8206 287.7228 0200034  95.4938 277.9500 13.06739075685435

Volg DELTA 1 DEB in realtime met AllMySat

Download on the App Store